TGL66PC LEBL-LFPG

Flight info

Callsign TGL66PC
Flight time 1h 23m
Altitude 30000
Route OLOXO DCT OKABI/N0450F340 DCT TOU DCT POI/N0430F300 DCT PEPAX UT182 KEPER
Aircraft A343/H-SDE2E3FGHIJ4J5M1RWXY/LB1D1

Departure

Time 2026-05-08 14:45
Airport Josep Tarradellas Barcelona-El Prat Airport (LEBL)

Arrival

Time 2026-05-08 16:08
Airport Charles de Gaulle International Airport (LFPG)
Time Latitude Longitude Altitude Speed Heading
2026-05-08 13:50 41.29108 2.08270 23 ft 0 kts 332°
2026-05-08 14:27 41.29099 2.08276 26 ft 3 kts 329°
2026-05-08 14:28 41.29082 2.08291 27 ft 3 kts 325°
2026-05-08 14:28 41.29065 2.08306 28 ft 3 kts 324°
2026-05-08 14:28 41.29049 2.08320 27 ft 3 kts 344°
2026-05-08 14:28 41.29038 2.08325 28 ft 3 kts 55°
2026-05-08 14:29 41.29037 2.08323 27 ft 0 kts 65°
2026-05-08 14:34 41.29038 2.08327 28 ft 1 kts 65°
2026-05-08 14:34 41.29044 2.08343 28 ft 3 kts 65°
2026-05-08 14:34 41.29057 2.08365 28 ft 4 kts 44°
2026-05-08 14:34 41.29090 2.08392 26 ft 7 kts 27°
2026-05-08 14:35 41.29134 2.08416 26 ft 7 kts 21°
2026-05-08 14:35 41.29184 2.08441 27 ft 8 kts 19°
2026-05-08 14:35 41.29241 2.08449 28 ft 8 kts 352°
2026-05-08 14:35 41.29299 2.08419 25 ft 10 kts 335°
2026-05-08 14:36 41.29373 2.08374 26 ft 13 kts 336°
2026-05-08 14:36 41.29462 2.08321 24 ft 15 kts 336°
2026-05-08 14:36 41.29563 2.08260 20 ft 14 kts 335°
2026-05-08 14:36 41.29618 2.08227 20 ft 0 kts 335°
2026-05-08 14:37 41.29633 2.08208 23 ft 2 kts 291°
2026-05-08 14:37 41.29633 2.08188 21 ft 3 kts 268°
2026-05-08 14:37 41.29625 2.08151 21 ft 6 kts 249°
2026-05-08 14:38 41.29601 2.08085 22 ft 10 kts 245°
2026-05-08 14:38 41.29568 2.07989 22 ft 13 kts 245°
2026-05-08 14:38 41.29527 2.07870 22 ft 15 kts 245°
2026-05-08 14:38 41.29479 2.07730 21 ft 18 kts 245°
2026-05-08 14:39 41.29425 2.07569 22 ft 20 kts 245°
2026-05-08 14:39 41.29365 2.07396 21 ft 21 kts 246°
2026-05-08 14:39 41.29337 2.07312 21 ft 0 kts 248°
2026-05-08 14:39 41.29334 2.07301 24 ft 2 kts 248°
2026-05-08 14:40 41.29327 2.07278 22 ft 4 kts 249°
2026-05-08 14:40 41.29332 2.07255 21 ft 2 kts 302°
2026-05-08 14:40 41.29351 2.07239 20 ft 5 kts 331°
2026-05-08 14:40 41.29353 2.07238 20 ft 0 kts 331°
2026-05-08 14:42 41.29354 2.07237 20 ft 1 kts 331°
2026-05-08 14:42 41.29371 2.07225 20 ft 4 kts 333°
2026-05-08 14:42 41.29402 2.07205 20 ft 6 kts 334°
2026-05-08 14:42 41.29440 2.07182 22 ft 6 kts 338°
2026-05-08 14:43 41.29476 2.07186 21 ft 4 kts 34°
2026-05-08 14:43 41.29491 2.07217 23 ft 4 kts 57°
2026-05-08 14:43 41.29501 2.07242 25 ft 0 kts 66°
2026-05-08 14:44 41.29528 2.07323 25 ft 36 kts 65°
2026-05-08 14:44 41.29724 2.07895 20 ft 97 kts 65°
2026-05-08 14:44 41.30074 2.08917 26 ft 144 kts 65°
2026-05-08 14:44 41.30543 2.10271 213 ft 170 kts 67°
2026-05-08 14:45 41.31033 2.11708 837 ft 175 kts 68°
2026-05-08 14:45 41.31637 2.13260 1120 ft 207 kts 58°
2026-05-08 14:45 41.32690 2.14788 1312 ft 243 kts 35°
2026-05-08 14:45 41.34347 2.15564 1722 ft 265 kts
2026-05-08 14:46 41.36191 2.15701 2780 ft 266 kts
2026-05-08 14:46 41.38049 2.15734 3875 ft 267 kts
2026-05-08 14:46 41.39912 2.15773 4938 ft 269 kts
2026-05-08 14:46 41.41805 2.15827 5900 ft 275 kts
2026-05-08 14:47 41.43742 2.15898 6592 ft 282 kts
2026-05-08 14:47 41.45715 2.15984 7259 ft 286 kts
2026-05-08 14:47 41.47715 2.16080 8183 ft 289 kts
2026-05-08 14:47 41.49744 2.16151 9049 ft 294 kts 356°
2026-05-08 14:48 41.51763 2.15672 9899 ft 297 kts 340°
2026-05-08 14:48 41.53729 2.14716 10520 ft 308 kts 335°
2026-05-08 14:48 41.55741 2.13479 10905 ft 328 kts 331°
2026-05-08 14:48 41.57826 2.12032 11318 ft 347 kts 329°
2026-05-08 14:49 41.59987 2.10468 11812 ft 359 kts 329°
2026-05-08 14:49 41.62201 2.08856 12485 ft 365 kts 329°
2026-05-08 14:49 41.64454 2.07233 13230 ft 370 kts 329°
2026-05-08 14:49 41.66740 2.05606 13980 ft 375 kts 329°
2026-05-08 14:50 41.69037 2.03989 14655 ft 379 kts 329°
2026-05-08 14:50 41.71386 2.02345 15354 ft 383 kts 329°
2026-05-08 14:50 41.73769 2.00680 16032 ft 387 kts 329°
2026-05-08 14:50 41.76164 1.99006 16748 ft 390 kts 329°
2026-05-08 14:51 41.78585 1.97313 17446 ft 394 kts 329°
2026-05-08 14:51 41.81024 1.95604 18134 ft 397 kts 328°
2026-05-08 14:51 41.83487 1.93878 18774 ft 401 kts 328°
2026-05-08 14:51 41.85973 1.92132 19353 ft 405 kts 328°
2026-05-08 14:52 41.88483 1.90366 19926 ft 410 kts 328°
2026-05-08 14:52 41.93605 1.86759 20997 ft 419 kts 327°
2026-05-08 14:52 41.96167 1.84953 21570 ft 423 kts 327°
2026-05-08 14:53 41.98782 1.83109 22128 ft 426 kts 327°
2026-05-08 14:53 42.01421 1.81246 22664 ft 430 kts 327°
2026-05-08 14:53 42.04084 1.79365 23204 ft 434 kts 327°
2026-05-08 14:53 42.06763 1.77470 23693 ft 437 kts 327°
2026-05-08 14:54 42.09468 1.75553 24078 ft 442 kts 327°
2026-05-08 14:54 42.12200 1.73618 24526 ft 444 kts 327°
2026-05-08 14:54 42.14951 1.71668 24966 ft 448 kts 327°
2026-05-08 14:54 42.17713 1.69708 25380 ft 450 kts 327°
2026-05-08 14:55 42.20494 1.67725 25790 ft 454 kts 328°
2026-05-08 14:55 42.23297 1.65727 26159 ft 457 kts 328°
2026-05-08 14:55 42.26122 1.63712 26445 ft 461 kts 328°
2026-05-08 14:55 42.28961 1.61689 26942 ft 462 kts 328°
2026-05-08 14:56 42.31810 1.59658 27336 ft 464 kts 328°
2026-05-08 14:56 42.34670 1.57618 27637 ft 467 kts 328°
2026-05-08 14:56 42.37555 1.55557 27962 ft 470 kts 328°
2026-05-08 14:56 42.40467 1.53505 28331 ft 474 kts 332°
2026-05-08 14:57 42.43555 1.51844 28592 ft 483 kts 341°
2026-05-08 14:57 42.46842 1.50783 28876 ft 488 kts 348°
2026-05-08 14:57 42.50202 1.50038 29272 ft 490 kts 351°
2026-05-08 14:57 42.53595 1.49454 29632 ft 492 kts 352°
2026-05-08 14:58 42.57007 1.48943 29919 ft 495 kts 353°
2026-05-08 14:58 42.60440 1.48448 30220 ft 497 kts 353°
2026-05-08 14:58 42.63890 1.47945 30426 ft 501 kts 353°
2026-05-08 14:58 42.67375 1.47421 30654 ft 504 kts 353°
2026-05-08 14:59 42.70863 1.46880 30914 ft 506 kts 353°
2026-05-08 14:59 42.77827 1.45769 31577 ft 506 kts 353°
2026-05-08 14:59 42.81314 1.45205 31956 ft 505 kts 353°
2026-05-08 15:00 42.84801 1.44638 32336 ft 504 kts 353°
2026-05-08 15:00 42.88278 1.44074 32714 ft 502 kts 353°
2026-05-08 15:00 42.91742 1.43512 33098 ft 501 kts 353°
2026-05-08 15:00 42.95202 1.42949 33460 ft 500 kts 353°
2026-05-08 15:01 42.98656 1.42388 33824 ft 499 kts 353°
2026-05-08 15:01 43.02103 1.41827 33923 ft 496 kts 354°
2026-05-08 15:01 43.08883 1.40722 33927 ft 487 kts 353°
2026-05-08 15:02 43.15613 1.39625 33923 ft 487 kts 353°
2026-05-08 15:02 43.22339 1.38527 33919 ft 487 kts 353°
2026-05-08 15:03 43.29060 1.37427 33919 ft 486 kts 353°
2026-05-08 15:03 43.35785 1.36323 33922 ft 486 kts 353°
2026-05-08 15:04 43.42507 1.35217 33925 ft 486 kts 353°
2026-05-08 15:04 43.49178 1.34116 33926 ft 486 kts 353°
2026-05-08 15:05 43.55891 1.33006 33928 ft 486 kts 353°
2026-05-08 15:05 43.62618 1.31891 33940 ft 486 kts 353°
2026-05-08 15:06 43.69296 1.30501 33940 ft 485 kts 347°
2026-05-08 15:06 43.75883 1.28433 33938 ft 485 kts 346°
2026-05-08 15:07 43.82451 1.26246 33932 ft 485 kts 346°
2026-05-08 15:07 43.89001 1.24044 33933 ft 484 kts 346°
2026-05-08 15:08 43.94453 1.22216 33933 ft 484 kts 346°
2026-05-08 15:08 44.02063 1.19668 33934 ft 484 kts 346°
2026-05-08 15:09 44.08606 1.17474 33931 ft 483 kts 346°
2026-05-08 15:09 44.15135 1.15280 33931 ft 482 kts 346°
2026-05-08 15:10 44.21668 1.13078 33933 ft 483 kts 346°
2026-05-08 15:10 44.28177 1.10880 33935 ft 484 kts 346°
2026-05-08 15:11 44.34733 1.08660 33934 ft 484 kts 346°
2026-05-08 15:11 44.41273 1.06441 33929 ft 484 kts 346°
2026-05-08 15:12 44.47811 1.04219 33929 ft 483 kts 345°
2026-05-08 15:12 44.54345 1.01992 33930 ft 483 kts 345°
2026-05-08 15:13 44.60883 0.99757 33930 ft 483 kts 345°
2026-05-08 15:13 44.67413 0.97523 33924 ft 483 kts 345°
2026-05-08 15:14 44.73941 0.95282 33924 ft 482 kts 345°
2026-05-08 15:14 44.80462 0.93038 33916 ft 482 kts 345°
2026-05-08 15:15 44.86985 0.90789 33912 ft 483 kts 345°
2026-05-08 15:15 44.93512 0.88533 33913 ft 482 kts 345°
2026-05-08 15:16 44.99996 0.86287 33914 ft 482 kts 344°
2026-05-08 15:16 45.06507 0.84027 33913 ft 481 kts 344°
2026-05-08 15:17 45.11909 0.82148 33910 ft 481 kts 344°
2026-05-08 15:17 45.18412 0.79880 33911 ft 481 kts 344°
2026-05-08 15:18 45.24899 0.77613 33913 ft 479 kts 344°
2026-05-08 15:18 45.31370 0.75345 33917 ft 479 kts 344°
2026-05-08 15:19 45.37855 0.73067 33914 ft 480 kts 344°
2026-05-08 15:19 45.44339 0.70784 33915 ft 479 kts 344°
2026-05-08 15:20 45.50820 0.68495 33915 ft 479 kts 344°
2026-05-08 15:20 45.57250 0.66220 33928 ft 479 kts 344°
2026-05-08 15:21 45.63711 0.63930 33931 ft 477 kts 343°
2026-05-08 15:21 45.70151 0.61642 33930 ft 476 kts 343°
2026-05-08 15:22 45.76592 0.59346 33937 ft 476 kts 343°
2026-05-08 15:22 45.83016 0.57052 33939 ft 475 kts 343°
2026-05-08 15:23 45.89274 0.54812 33933 ft 475 kts 343°
2026-05-08 15:23 45.95690 0.52512 33940 ft 475 kts 343°
2026-05-08 15:24 46.02096 0.50215 33955 ft 473 kts 343°
2026-05-08 15:24 46.08484 0.47927 33967 ft 473 kts 343°
2026-05-08 15:25 46.14863 0.45641 33969 ft 473 kts 343°
2026-05-08 15:25 46.21246 0.43356 33996 ft 471 kts 343°
2026-05-08 15:26 46.27610 0.41079 34010 ft 470 kts 343°
2026-05-08 15:26 46.33962 0.38807 34027 ft 471 kts 343°
2026-05-08 15:27 46.40341 0.36519 34041 ft 472 kts 343°
2026-05-08 15:27 46.46671 0.34249 34052 ft 471 kts 343°
2026-05-08 15:28 46.53035 0.31967 34062 ft 471 kts 343°
2026-05-08 15:28 46.59405 0.29683 34075 ft 470 kts 343°
2026-05-08 15:29 46.65744 0.27412 34088 ft 468 kts 343°
2026-05-08 15:29 46.72070 0.25145 34095 ft 468 kts 343°
2026-05-08 15:30 46.78488 0.23445 34084 ft 471 kts 350°
2026-05-08 15:30 46.85025 0.23784 34074 ft 477 kts 15°
2026-05-08 15:31 46.91200 0.27558 34073 ft 489 kts 28°
2026-05-08 15:31 46.96941 0.32937 34000 ft 490 kts 33°
2026-05-08 15:32 47.03043 0.37201 33998 ft 484 kts 14°
2026-05-08 15:32 47.06308 0.38171 33830 ft 474 kts
2026-05-08 15:32 47.09536 0.38475 33265 ft 470 kts 358°
2026-05-08 15:33 47.12812 0.38404 32493 ft 471 kts 355°
2026-05-08 15:33 47.16091 0.38137 31760 ft 473 kts 354°
2026-05-08 15:33 47.19379 0.37805 31063 ft 474 kts 354°
2026-05-08 15:33 47.22659 0.37479 30467 ft 472 kts 354°
2026-05-08 15:34 47.25936 0.37185 30086 ft 471 kts 355°
2026-05-08 15:34 47.29221 0.36921 29968 ft 475 kts 355°
2026-05-08 15:34 47.35833 0.36451 29965 ft 476 kts 355°
2026-05-08 15:35 47.42401 0.36016 29964 ft 472 kts 355°
2026-05-08 15:35 47.48968 0.35379 29973 ft 472 kts 351°
2026-05-08 15:36 47.55429 0.33892 29975 ft 468 kts 348°
2026-05-08 15:36 47.61835 0.32171 29978 ft 466 kts 347°
2026-05-08 15:37 47.68205 0.30506 29965 ft 463 kts 348°
2026-05-08 15:37 47.71336 0.29712 29797 ft 451 kts 348°
2026-05-08 15:37 47.74397 0.28947 29526 ft 441 kts 348°
2026-05-08 15:38 47.77401 0.28199 29260 ft 435 kts 348°
2026-05-08 15:38 47.80381 0.27454 29000 ft 434 kts 348°
2026-05-08 15:38 47.83379 0.26702 28774 ft 443 kts 348°
2026-05-08 15:38 47.86447 0.25922 28561 ft 450 kts 348°
2026-05-08 15:39 47.89494 0.25141 28346 ft 451 kts 348°
2026-05-08 15:39 47.92586 0.24343 28131 ft 450 kts 348°
2026-05-08 15:39 47.95664 0.23543 28001 ft 449 kts 348°
2026-05-08 15:39 47.98733 0.22741 27994 ft 448 kts 348°
2026-05-08 15:40 48.01806 0.21952 27999 ft 448 kts 349°
2026-05-08 15:40 48.04915 0.21561 27995 ft 449 kts 357°
2026-05-08 15:40 48.08036 0.21909 27993 ft 452 kts
2026-05-08 15:40 48.11076 0.23123 27993 ft 455 kts 19°
2026-05-08 15:41 48.13906 0.25239 27991 ft 452 kts 31°
2026-05-08 15:41 48.16329 0.28124 27991 ft 440 kts 43°
2026-05-08 15:41 48.18253 0.31651 27760 ft 438 kts 56°
2026-05-08 15:41 48.19752 0.35638 27520 ft 440 kts 63°
2026-05-08 15:42 48.21024 0.39807 27401 ft 440 kts 65°
2026-05-08 15:42 48.22220 0.44032 27337 ft 439 kts 65°
2026-05-08 15:42 48.23420 0.48253 27222 ft 439 kts 64°
2026-05-08 15:42 48.24649 0.52444 27104 ft 438 kts 64°
2026-05-08 15:43 48.25910 0.56601 27017 ft 437 kts 63°
2026-05-08 15:43 48.27194 0.60737 26962 ft 437 kts 63°
2026-05-08 15:43 48.28491 0.64858 26910 ft 436 kts 62°
2026-05-08 15:43 48.29791 0.68964 26854 ft 436 kts 62°
2026-05-08 15:44 48.31092 0.73071 26817 ft 435 kts 62°
2026-05-08 15:44 48.32390 0.77176 26760 ft 435 kts 62°
2026-05-08 15:44 48.33683 0.81279 26703 ft 434 kts 62°
2026-05-08 15:44 48.34976 0.85387 26650 ft 434 kts 62°
2026-05-08 15:45 48.36339 0.89422 26573 ft 433 kts 59°
2026-05-08 15:45 48.37753 0.93421 26485 ft 433 kts 59°
2026-05-08 15:45 48.39161 0.97417 26432 ft 432 kts 59°
2026-05-08 15:45 48.40560 1.01419 26394 ft 432 kts 59°
2026-05-08 15:46 48.41953 1.05424 26334 ft 431 kts 59°
2026-05-08 15:46 48.43339 1.09426 26291 ft 431 kts 59°
2026-05-08 15:46 48.44706 1.13383 26233 ft 431 kts 59°
2026-05-08 15:46 48.46089 1.17393 26182 ft 431 kts 59°
2026-05-08 15:47 48.47466 1.21396 26142 ft 430 kts 59°
2026-05-08 15:47 48.48840 1.25397 26085 ft 430 kts 60°
2026-05-08 15:47 48.50213 1.29400 26047 ft 429 kts 60°
2026-05-08 15:47 48.51577 1.33387 25836 ft 425 kts 59°
2026-05-08 15:48 48.54223 1.41148 25452 ft 406 kts 59°
2026-05-08 15:48 48.55504 1.44910 25229 ft 399 kts 59°
2026-05-08 15:48 48.56754 1.48614 24936 ft 394 kts 60°
2026-05-08 15:49 48.57907 1.52356 24529 ft 388 kts 53°
2026-05-08 15:49 48.59707 1.55263 24169 ft 374 kts 30°
2026-05-08 15:49 48.61976 1.56858 23819 ft 360 kts
2026-05-08 15:49 48.64412 1.57641 23456 ft 357 kts
2026-05-08 15:50 48.66812 1.58597 23056 ft 357 kts 13°
2026-05-08 15:50 48.69156 1.59832 22661 ft 356 kts 17°
2026-05-08 15:50 48.71429 1.61243 22433 ft 350 kts 19°
2026-05-08 15:50 48.73691 1.62454 22047 ft 341 kts
2026-05-08 15:51 48.76001 1.62200 21646 ft 330 kts 339°
2026-05-08 15:51 48.77946 1.60477 21236 ft 324 kts 314°
2026-05-08 15:51 48.79150 1.57642 20828 ft 322 kts 288°
2026-05-08 15:51 48.79364 1.54295 20437 ft 323 kts 262°
2026-05-08 15:52 48.78535 1.51145 20075 ft 326 kts 236°
2026-05-08 15:52 48.76830 1.48885 19756 ft 331 kts 209°
2026-05-08 15:52 48.74620 1.47930 19450 ft 332 kts 191°
2026-05-08 15:52 48.72320 1.47613 19138 ft 332 kts 182°
2026-05-08 15:53 48.70038 1.48149 18848 ft 334 kts 163°
2026-05-08 15:53 48.68036 1.49839 18551 ft 337 kts 141°
2026-05-08 15:53 48.66608 1.52638 18267 ft 339 kts 116°
2026-05-08 15:53 48.66106 1.56107 17913 ft 340 kts 89°
2026-05-08 15:54 48.66667 1.59542 17554 ft 339 kts 61°
2026-05-08 15:54 48.68166 1.62221 17204 ft 334 kts 33°
2026-05-08 15:54 48.70253 1.63627 16885 ft 327 kts 11°
2026-05-08 15:54 48.72476 1.64297 16573 ft 325 kts
2026-05-08 15:55 48.74693 1.64921 16225 ft 323 kts
2026-05-08 15:55 48.78343 1.68923 14861 ft 348 kts 62°
2026-05-08 15:55 48.79206 1.72379 14326 ft 352 kts 72°
2026-05-08 15:56 48.80019 1.75887 13891 ft 353 kts 69°
2026-05-08 15:56 48.80963 1.79311 13448 ft 351 kts 65°
2026-05-08 15:56 48.82001 1.82668 13016 ft 349 kts 64°
2026-05-08 15:56 48.83083 1.85955 12601 ft 347 kts 63°
2026-05-08 15:57 48.84190 1.89206 12191 ft 345 kts 62°
2026-05-08 15:57 48.85306 1.92428 11785 ft 343 kts 62°
2026-05-08 15:57 48.86421 1.95615 11399 ft 341 kts 62°
2026-05-08 15:57 48.87518 1.98794 10999 ft 338 kts 63°
2026-05-08 15:58 48.88919 2.01621 10564 ft 336 kts 43°
2026-05-08 15:58 48.90660 2.03968 10174 ft 333 kts 40°
2026-05-08 15:58 48.92381 2.06238 9833 ft 329 kts 40°
2026-05-08 15:58 48.94066 2.08514 9636 ft 319 kts 41°
2026-05-08 15:59 48.95687 2.10745 9479 ft 310 kts 41°
2026-05-08 15:59 48.97256 2.12927 9315 ft 302 kts 42°
2026-05-08 15:59 48.98784 2.15068 9096 ft 296 kts 42°
2026-05-08 15:59 49.00267 2.17210 8776 ft 293 kts 48°
2026-05-08 16:00 49.01126 2.19990 8415 ft 292 kts 82°
2026-05-08 16:00 49.01235 2.23049 8141 ft 288 kts 90°
2026-05-08 16:00 49.01252 2.26097 7805 ft 287 kts 89°
2026-05-08 16:00 49.01283 2.29129 7467 ft 286 kts 93°
2026-05-08 16:01 49.00763 2.32008 7172 ft 282 kts 120°
2026-05-08 16:01 48.99482 2.34199 6903 ft 277 kts 146°
2026-05-08 16:01 48.97714 2.35277 6562 ft 276 kts 172°
2026-05-08 16:01 48.95822 2.35028 6190 ft 275 kts 199°
2026-05-08 16:02 48.94212 2.33509 5790 ft 275 kts 226°
2026-05-08 16:02 48.93233 2.31048 5411 ft 274 kts 253°
2026-05-08 16:02 48.93091 2.28181 5005 ft 274 kts 281°
2026-05-08 16:02 48.93487 2.26368 4758 ft 272 kts 299°
2026-05-08 16:03 48.95215 2.23726 4274 ft 267 kts 332°
2026-05-08 16:03 48.96946 2.22894 4048 ft 260 kts 359°
2026-05-08 16:03 48.98697 2.23428 4014 ft 258 kts 27°
2026-05-08 16:03 48.99687 2.24500 4010 ft 259 kts 46°
2026-05-08 16:04 49.00681 2.26755 3842 ft 258 kts 65°
2026-05-08 16:04 49.01281 2.29320 3497 ft 255 kts 79°
2026-05-08 16:04 49.01392 2.31929 3109 ft 244 kts 90°
2026-05-08 16:04 49.01444 2.34386 2727 ft 219 kts 83°
2026-05-08 16:05 49.01621 2.36558 2436 ft 195 kts 83°
2026-05-08 16:05 49.01719 2.38511 2214 ft 173 kts 84°
2026-05-08 16:05 49.01808 2.40279 1981 ft 158 kts 83°
2026-05-08 16:05 49.01899 2.41872 1755 ft 146 kts 84°
2026-05-08 16:06 49.01981 2.43394 1589 ft 142 kts 84°
2026-05-08 16:06 49.02060 2.44856 1386 ft 134 kts 84°
2026-05-08 16:06 49.02136 2.46255 1214 ft 132 kts 85°
2026-05-08 16:06 49.02210 2.47649 1052 ft 134 kts 84°
2026-05-08 16:07 49.02287 2.49074 856 ft 132 kts 85°
2026-05-08 16:07 49.02361 2.50467 683 ft 132 kts 83°
2026-05-08 16:07 49.02437 2.51848 460 ft 128 kts 83°
2026-05-08 16:07 49.02513 2.53179 363 ft 120 kts 84°
2026-05-08 16:08 49.02556 2.54016 362 ft 36 kts 85°
2026-05-08 16:08 49.02561 2.54112 361 ft 8 kts 85°
2026-05-08 16:08 49.02570 2.54276 363 ft 20 kts 85°
2026-05-08 16:08 49.02555 2.54515 360 ft 25 kts 103°
2026-05-08 16:09 49.02514 2.54744 363 ft 19 kts 104°
2026-05-08 16:09 49.02479 2.54944 362 ft 20 kts 105°
2026-05-08 16:09 49.02457 2.55064 363 ft 0 kts 105°
2026-05-08 16:13 49.02453 2.55089 366 ft 7 kts 105°
2026-05-08 16:13 49.02447 2.55205 362 ft 13 kts 86°
2026-05-08 16:14 49.02454 2.55348 364 ft 14 kts 85°
2026-05-08 16:14 49.02461 2.55506 364 ft 15 kts 89°
2026-05-08 16:14 49.02444 2.55581 364 ft 7 kts 130°
2026-05-08 16:14 49.02399 2.55613 365 ft 8 kts 169°
2026-05-08 16:15 49.02339 2.55624 363 ft 10 kts 174°
2026-05-08 16:15 49.02264 2.55631 358 ft 12 kts 176°
2026-05-08 16:15 49.02188 2.55640 366 ft 11 kts 175°
2026-05-08 16:15 49.02114 2.55649 361 ft 11 kts 175°
2026-05-08 16:16 49.02079 2.55654 365 ft 0 kts 176°
2026-05-08 16:16 49.02074 2.55647 365 ft 1 kts 210°
2026-05-08 16:16 49.02073 2.55630 366 ft 3 kts 257°
2026-05-08 16:16 49.02066 2.55546 364 ft 11 kts 264°
2026-05-08 16:17 49.02059 2.55414 360 ft 13 kts 265°
2026-05-08 16:17 49.02054 2.55323 358 ft 12 kts 266°
2026-05-08 16:17 49.02046 2.55164 366 ft 10 kts 265°
2026-05-08 16:17 49.02040 2.55059 363 ft 9 kts 265°
2026-05-08 16:18 49.02035 2.54969 360 ft 8 kts 265°
2026-05-08 16:18 49.02031 2.54898 366 ft 6 kts 265°
2026-05-08 16:18 49.02028 2.54842 364 ft 5 kts 265°
2026-05-08 16:18 49.02026 2.54786 363 ft 5 kts 266°
2026-05-08 16:19 49.02023 2.54728 362 ft 6 kts 266°
2026-05-08 16:19 49.02020 2.54665 364 ft 7 kts 266°
2026-05-08 16:19 49.02016 2.54584 366 ft 8 kts 265°
2026-05-08 16:19 49.02010 2.54486 363 ft 10 kts 264°
2026-05-08 16:20 49.02003 2.54371 366 ft 12 kts 265°
2026-05-08 16:20 49.01994 2.54243 363 ft 13 kts 258°
2026-05-08 16:20 49.01943 2.54142 366 ft 12 kts 208°
2026-05-08 16:20 49.01861 2.54132 367 ft 12 kts 180°
2026-05-08 16:21 49.01811 2.54077 362 ft 9 kts 252°
2026-05-08 16:21 49.01795 2.53983 365 ft 9 kts 252°
2026-05-08 16:21 49.01767 2.53890 360 ft 10 kts 241°
2026-05-08 16:21 49.01727 2.53804 367 ft 9 kts 229°
2026-05-08 16:22 49.01680 2.53737 367 ft 9 kts 221°
2026-05-08 16:22 49.01631 2.53681 365 ft 9 kts 210°
2026-05-08 16:22 49.01578 2.53643 367 ft 8 kts 200°
2026-05-08 16:22 49.01524 2.53620 363 ft 8 kts 191°
2026-05-08 16:23 49.01470 2.53609 365 ft 8 kts 184°
2026-05-08 16:23 49.01419 2.53609 361 ft 7 kts 176°
2026-05-08 16:23 49.01370 2.53619 364 ft 7 kts 170°
2026-05-08 16:23 49.01325 2.53636 363 ft 7 kts 163°
2026-05-08 16:24 49.01277 2.53665 364 ft 8 kts 155°
2026-05-08 16:24 49.01227 2.53712 367 ft 9 kts 142°
2026-05-08 16:24 49.01188 2.53785 362 ft 9 kts 118°
2026-05-08 16:24 49.01176 2.53881 360 ft 9 kts 89°
2026-05-08 16:25 49.01180 2.53984 365 ft 10 kts 86°
2026-05-08 16:25 49.01185 2.54097 354 ft 9 kts 87°
2026-05-08 16:25 49.01190 2.54202 346 ft 11 kts 85°
2026-05-08 16:25 49.01196 2.54319 350 ft 5 kts 85°
2026-05-08 16:26 49.01196 2.54325 351 ft 0 kts 84°
2026-05-08 16:26 49.01197 2.54328 352 ft 1 kts 83°
2026-05-08 16:26 49.01201 2.54375 363 ft 7 kts 84°
2026-05-08 16:26 49.01207 2.54469 359 ft 9 kts 84°
2026-05-08 16:27 49.01214 2.54517 366 ft 1 kts 57°
2026-05-08 16:27 49.01216 2.54519 366 ft 1 kts 48°
2026-05-08 16:27 49.01238 2.54542 367 ft 4 kts 32°
2026-05-08 16:27 49.01257 2.54555 366 ft 2 kts 22°
2026-05-08 16:28 49.01262 2.54558 366 ft 0 kts 20°
2026-05-08 16:28 49.01270 2.54561 365 ft 1 kts 13°
2026-05-08 16:28 49.01272 2.54561 365 ft 0 kts
2026-05-08 16:28 49.01277 2.54560 365 ft 1 kts 358°
2026-05-08 16:29 49.01280 2.54559 364 ft 0 kts 356°
2026-05-08 16:29 49.01283 2.54559 364 ft 0 kts 354°
2026-05-08 16:29 49.01286 2.54558 364 ft 1 kts 353°
2026-05-08 16:29 49.01290 2.54557 364 ft 0 kts 353°
2026-05-08 16:41 49.02500 2.52989 353 ft 2 kts 84°